Date String (YYYY-MM-DD hh:mm:ss) UTC,Instrument flags,Ambient pressure (hPa),Sample flow (lpm),Bypass flow (lpm),Sample temperature (°C),Ambient temperature (°C),ASC tube jacket temperature (°C),LED temperature (°C),Box temperature (°C),Sample RH (%),Span deviation,Mass concentration (μg/m³),Mass concentration (μg/m³),Mass concentration (μg/m³)
DateTimeUTC,F1_M11,P_M11,Q1_M11,Q2_M11,T1_M11,T2_M11,T3_M11,T4_M11,T5_M11,U1_M11,ZSPAN_M11,X0_M11,X2_M11,X1_M11
2022-05-22 20:00:00,,0828.1,5.00,0.00,27.6,26.9,00.0,36.4,29.5,16.3,0000.0,0000.01,0000.00,0000.00
2022-05-22 20:01:00,,0828.2,5.00,0.00,27.6,26.9,00.0,36.4,29.5,16.2,0000.0,0000.01,0000.00,0000.00
2022-05-22 20:02:00,,0828.2,4.99,0.00,27.6,26.9,00.0,36.4,29.6,15.9,0000.0,0000.01,0000.00,0000.00
2022-05-22 20:03:00,,0828.1,4.99,0.00,27.7,27.0,00.0,36.4,29.6,15.7,0000.0,0000.01,0000.00,0000.00
2022-05-22 20:04:00,,0828.1,4.99,0.00,27.7,27.0,00.0,36.5,29.6,16.3,0000.0,0000.01,0000.00,0000.00
2022-05-22 20:05:00,,0828.0,5.00,0.00,27.7,27.0,00.0,36.5,29.6,16.7,0000.0,0000.01,0000.01,0000.00
2022-05-22 20:06:00,,0828.0,5.02,0.00,27.7,27.1,00.0,36.5,29.7,16.3,0000.0,0000.03,0000.01,0000.00
2022-05-22 20:07:00,,0828.0,4.99,0.00,27.7,27.1,00.0,36.5,29.7,16.0,0000.0,0000.05,0000.02,0000.00
2022-05-22 20:08:00,,0828.0,5.00,0.00,27.8,27.1,00.0,36.5,29.7,15.7,0000.0,0000.05,0000.02,0000.00
2022-05-22 20:09:00,,0828.0,5.00,0.00,27.8,27.1,00.0,36.6,29.7,15.7,0000.0,0000.05,0000.02,0000.00
2022-05-22 20:10:00,,0827.9,5.01,0.00,27.8,27.1,00.0,36.6,29.8,15.7,0000.0,0000.05,0000.02,0000.00
2022-05-22 20:11:00,,0828.0,5.00,0.00,27.8,27.2,00.0,36.6,29.8,15.6,0000.0,0000.05,0000.02,0000.00
2022-05-22 20:12:00,,0828.0,4.99,0.00,27.8,27.2,00.0,36.6,29.8,15.7,0000.0,0000.05,0000.02,0000.01
2022-05-22 20:13:00,,0827.9,5.00,0.00,27.9,27.2,00.0,36.7,29.8,16.2,0000.0,0000.05,0000.02,0000.01
2022-05-22 20:14:00,,0827.9,5.01,0.00,27.9,27.2,00.0,36.7,29.8,16.1,0000.0,0000.05,0000.03,0000.01
2022-05-22 20:15:00,,0827.8,5.01,0.00,27.9,27.2,00.0,36.7,29.9,16.1,0000.0,0000.05,0000.03,0000.01
2022-05-22 20:16:00,,0827.9,5.01,0.00,27.9,27.2,00.0,36.7,29.9,15.9,0000.0,0000.06,0000.03,0000.01
2022-05-22 20:17:00,,0827.8,5.00,0.00,27.9,27.3,00.0,36.7,29.9,15.5,0000.0,0000.03,0000.02,0000.01
2022-05-22 20:18:00,,0827.8,4.99,0.00,28.0,27.3,00.0,36.7,29.9,15.9,0000.0,0000.02,0000.01,0000.01
2022-05-22 20:19:00,,0827.8,5.00,0.00,28.0,27.3,00.0,36.8,29.9,15.7,0000.0,0000.02,0000.01,0000.01
2022-05-22 20:20:00,,0827.7,5.00,0.00,28.0,27.3,00.0,36.8,29.9,14.9,0000.0,0000.02,0000.01,0000.01
2022-05-22 20:21:00,,0827.7,5.00,0.00,28.0,27.3,00.0,36.8,29.9,15.4,0000.0,0000.02,0000.01,0000.01
2022-05-22 20:22:00,,0827.8,5.00,0.00,28.0,27.4,00.0,36.8,30.0,15.9,0000.0,0000.02,0000.01,0000.01
2022-05-22 20:23:00,,0827.7,5.00,0.00,28.1,27.4,00.0,36.8,30.0,16.2,0000.0,0000.02,0000.01,0000.01
2022-05-22 20:24:00,,0827.7,5.00,0.00,28.1,27.4,00.0,36.8,30.0,16.4,0000.0,0000.02,0000.01,0000.01
2022-05-22 20:25:00,,0827.7,5.00,0.00,28.1,27.4,00.0,36.9,30.0,15.8,0000.0,0000.02,0000.01,0000.01
2022-05-22 20:26:00,,0827.7,5.01,0.00,28.1,27.4,00.0,36.9,30.0,15.6,0000.0,0000.02,0000.01,0000.01
2022-05-22 20:27:00,,0827.7,4.99,0.00,28.1,27.4,00.0,36.9,30.1,15.6,0000.0,0000.01,0000.01,0000.01
2022-05-22 20:28:00,,0827.7,5.00,0.00,28.2,27.5,00.0,36.9,30.1,16.0,0000.0,0000.01,0000.01,0000.01
2022-05-22 20:29:00,,0827.8,5.00,0.00,28.2,27.5,00.0,36.9,30.1,15.8,0000.0,0000.01,0000.01,0000.01
2022-05-22 20:30:00,,0827.7,4.99,0.00,28.2,27.5,00.0,36.9,30.1,15.5,0000.0,0000.01,0000.01,0000.01
2022-05-22 20:31:00,,0827.7,4.99,0.00,28.2,27.5,00.0,37.0,30.1,15.5,0000.0,0000.01,0000.00,0000.00
2022-05-22 20:32:00,,0827.7,5.00,0.00,28.2,27.6,00.0,37.0,30.2,15.3,0000.0,0000.04,0000.02,0000.00
2022-05-22 20:33:00,,0827.7,5.00,0.00,28.3,27.6,00.0,37.0,30.2,15.4,0000.0,0000.06,0000.02,0000.01
2022-05-22 20:34:00,,0827.6,5.01,0.00,28.3,27.6,00.0,37.0,30.2,15.2,0000.0,0000.06,0000.02,0000.01
2022-05-22 20:35:00,,0827.6,5.00,0.00,28.3,27.6,00.0,37.1,30.2,14.7,0000.0,0000.06,0000.02,0000.01
2022-05-22 20:36:00,,0827.6,5.00,0.00,28.3,27.6,00.0,37.1,30.2,15.4,0000.0,0000.06,0000.02,0000.01
2022-05-22 20:37:00,,0827.5,5.00,0.00,28.3,27.7,00.0,37.1,30.2,15.8,0000.0,0000.06,0000.02,0000.01
2022-05-22 20:38:00,,0827.5,5.00,0.00,28.3,27.7,00.0,37.1,30.3,16.0,0000.0,0000.06,0000.02,0000.01
2022-05-22 20:39:00,,0827.5,5.00,0.00,28.4,27.7,00.0,37.1,30.3,15.5,0000.0,0000.49,0000.02,0000.01
2022-05-22 20:40:00,,0827.5,4.99,0.00,28.4,27.7,00.0,37.1,30.3,15.4,0000.0,0001.46,0000.02,0000.01
2022-05-22 20:41:00,,0827.5,5.01,0.00,28.4,27.7,00.0,37.2,30.3,16.1,0000.0,0001.46,0000.02,0000.01
2022-05-22 20:42:00,,0827.5,5.00,0.00,28.4,27.7,00.0,37.2,30.3,15.7,0000.0,0001.46,0000.02,0000.01
2022-05-22 20:43:00,,0827.5,5.01,0.00,28.4,27.7,00.0,37.2,30.3,16.3,0000.0,0001.43,0000.01,0000.01
2022-05-22 20:44:00,,0827.5,4.99,0.00,28.4,27.8,00.0,37.2,30.4,15.8,0000.0,0001.41,0000.01,0000.01
2022-05-22 20:45:00,,0827.5,5.00,0.00,28.5,27.8,00.0,37.2,30.4,15.5,0000.0,0001.41,0000.01,0000.01
2022-05-22 20:46:00,,0827.6,5.00,0.00,28.5,27.8,00.0,37.3,30.4,15.3,0000.0,0001.41,0000.01,0000.01
2022-05-22 20:47:00,,0827.6,5.01,0.00,28.5,27.8,00.0,37.3,30.4,15.3,0000.0,0001.41,0000.01,0000.00
2022-05-22 20:48:00,,0827.6,5.00,0.00,28.5,27.8,00.0,37.3,30.4,15.2,0000.0,0001.41,0000.01,0000.00
2022-05-22 20:49:00,,0827.5,4.99,0.00,28.5,27.8,00.0,37.3,30.4,14.9,0000.0,0001.41,0000.01,0000.00
2022-05-22 20:50:00,,0827.6,5.00,0.00,28.6,27.9,00.0,37.3,30.5,14.8,0000.0,0001.15,0000.00,0000.00
2022-05-22 20:51:00,,0827.5,5.00,0.00,28.6,27.9,00.0,37.3,30.5,15.6,0000.0,0000.01,0000.00,0000.00
2022-05-22 20:52:00,,0827.6,5.00,0.00,28.6,27.9,00.0,37.4,30.5,15.9,0000.0,0000.01,0000.00,0000.00
2022-05-22 20:53:00,,0827.5,5.00,0.00,28.6,27.9,00.0,37.4,30.5,15.3,0000.0,0000.00,0000.00,0000.00
2022-05-22 20:54:00,,0827.5,5.00,0.00,28.6,27.9,00.0,37.4,30.5,15.4,0000.0,0000.03,0000.01,0000.00
2022-05-22 20:55:00,,0827.5,5.01,0.00,28.6,28.0,00.0,37.4,30.6,15.5,0000.0,0000.05,0000.02,0000.00
2022-05-22 20:56:00,,0827.5,5.00,0.00,28.7,28.0,00.0,37.4,30.6,15.6,0000.0,0000.09,0000.03,0000.00
2022-05-22 20:57:00,,0827.5,5.00,0.00,28.7,28.0,00.0,37.5,30.6,16.0,0000.0,0000.09,0000.03,0000.00
2022-05-22 20:58:00,,0827.5,5.00,0.00,28.7,28.0,00.0,37.5,30.6,16.1,0000.0,0000.09,0000.03,0000.00
2022-05-22 20:59:00,,0827.5,4.99,0.00,28.7,28.0,00.0,37.5,30.6,15.9,0000.0,0000.09,0000.03,0000.00
